Weather in Tokhoy

Russia / Republic of Buryatia     51°22′01″N   106°36′05″E
temp.,
°C
wind,
m/s
gust,
m/s
humid.,
%
clouds,
%
prec.,
mm/h
press.,
hPa
HPBL,
m
27 october, wed
wed2723:00+3wsw11695 0.0 102110
02:00+3s22685 0.0 102015
05:00+2s23685 0.0 1020117
08:00+1s23706 0.0 1019132
11:00+4s2458100 0.0 1017319
14:00+7ssw24515 0.0 1014310
17:00+6n11575 0.0 101410
20:00+4nnw33665 0.0 101722
28 october, thu
thu2823:00+3nnw337018 0.0 101942
02:00+3n227011 0.0 102044
05:00+2n227068 0.0 102046
08:00+2n227275 0.0 102147
11:00+6n226065 0.0 1021195
14:00+8nnw665563 0.0 1020526
17:00+3nnw71265100 0.0 1024781
20:00+2nnw71375100 0.0 1027882
29 october, fri
fri2923:00+2nnw61169100 0.0 1029919
02:000nnw4868100 0.0 1031467
05:00−1nnw347127 0.0 1032248
08:00−3nnw237636 0.0 1034108
11:000ene115174 0.0 1034354
14:00+2s104253 0.0 1032398
17:00+1w11465 0.0 103142
20:000wnw00470 0.0 103261
30 october, sat
sat3023:000sse12470 0.0 1032177
02:00−1sse22490 0.0 1032187
05:00−2sse22522 0.0 1032158
08:00−2s22539 0.0 1033178
11:00+1s234218 0.0 1033368
14:00+2ssw23405 0.0 1031416
17:00+2n01485 0.0 102941
20:00+1se11550 0.0 1029120
31 october, sun
sun3123:000sse22575 0.0 1028144
02:00−1sse225993 0.0 1027136
05:00−1sse2262100 0.0 1026151
08:00−2sse126761 0.0 1026191
11:00+1ssw225926 0.0 1026347
14:00+2s115883 0.0 1025266
17:00+1wnw117060 0.0 102434
20:00+1n227138 0.0 102452